User: anonymous   Login
Location: NC_16_and_73
(35.4490°N, 81.0150°W)
Time: 01:49:34
(UTC-04:00)
Language:

Cosmos-2242 - Orbit

View from above orbital plane
View from above orbital plane
View from above satellite
View from above satellite

Ground track
Ground track

The orbit data is extracted from the following two-line orbital elements,

1 22626U 93024A   15245.66819000 +.00000430 +00000-0 +44986-4 0  9995
2 22626 082.5222 297.6958 0020626 127.0767 233.2340 14.87098966208705
Epoch (UTC): 02 September 2015 16:02:11
Eccentricity: 0.0020626
inclination: 82.5222°
perigee height: 592 km
apogee height: 621 km
right ascension of ascending node: 297.6958°
argument of perigee: 127.0767°
revolutions per day: 14.87098966
mean anomaly at epoch: 233.2340°
orbit number at epoch: 20870

The dashed part of the orbit path shows where the satellite is in the earth's shadow,  

DLR